Wind_Speed
11 13 15 16 14 14 9 7 6 5 5 5 6 6 9 2 10 14 16 13 12 11 15 10 7 6 6 6 5 5 3 4 6 7 8 16 14 14 15 14 20 24 29 34 42
11 12 13 14 14 14 11 7 6 6 6 7 5 6 11 1 5 11 16 8 9 9 12 12 11 7 3 5 4 4 3 5 5 5 8 15 15 17 13 21 24 32 31 30 39
12 12 13 14 14 14 12 8 6 6 6 8 3 4 11 5 2 8 15 7 9 13 10 12 8 4 2 4 6 5 2 5 8 10 12 12 11 12 14 10 25 34 38 36 30
12 12 13 14 14 14 13 10 8 6 6 7 2 5 6 6 2 14 11 6 6 13 11 9 13 7 3 4 6 3 4 9 9 10 12 5 5 11 15 19 30 30 32 32 28
12 13 12 13 14 14 13 11 8 7 6 5 2 3 1 2 5 15 9 5 8 7 10 12 13 10 6 8 9 4 9 12 11 10 18 2 2 10 20 27 30 30 27 26 26
10 12 12 12 13 14 14 12 8 7 5 4 2 2 4 1 10 13 9 6 3 6 8 9 7 10 5 9 1 9 12 16 5 5 7 8 7 9 21 30 30 29 27 27 28
11 11 12 11 12 13 13 12 9 7 4 4 3 2 1 4 9 11 6 7 3 4 6 9 5 7 9 6 1 12 10 12 10 5 4 17 4 9 23 31 27 31 28 28 32
11 12 12 13 12 14 12 10 8 7 3 3 1 2 1 3 11 10 4 1 4 5 6 8 6 6 8 13 11 5 3 6 3 4 6 8 4 10 16 27 28 30 31 30 35
12 13 13 14 13 12 10 7 7 6 1 2 2 2 2 4 10 14 7 2 4 6 7 8 7 2 16 12 2 1 6 14 8 5 2 4 4 8 15 23 27 32 33 35 38
10 14 14 14 14 12 9 6 8 6 1 1 3 1 2 3 7 21 4 5 3 7 7 5 4 4 6 6 3 9 12 9 10 3 7 6 2 8 18 19 21 31 33 35 40
7 13 15 14 13 12 9 7 4 2 2 2 2 0 1 5 2 18 8 6 5 9 2 2 5 6 11 5 4 11 12 11 14 4 3 4 5 7 21 23 23 32 35 37 40
11 9 12 14 13 9 8 3 3 2 2 2 1 2 3 4 4 17 5 2 5 4 8 3 6 8 12 5 8 11 9 9 15 16 10 6 8 4 12 18 24 29 33 37 44
15 13 7 10 11 7 6 3 4 2 3 1 1 1 2 5 4 13 10 5 4 5 6 6 6 9 12 7 12 10 7 13 13 15 8 6 5 4 6 22 30 34 33 37 42
16 14 10 5 6 4 2 3 3 1 2 3 1 3 4 3 3 12 10 3 1 5 6 3 9 9 10 8 10 6 13 15 12 9 2 7 3 6 12 18 22 35 41 41 45
17 18 13 10 5 5 4 2 6 3 4 3 1 1 4 3 1 8 13 4 4 4 3 3 7 7 6 9 11 5 20 11 7 8 5 2 2 7 13 19 23 29 40 39 42
22 18 15 10 10 10 8 6 4 4 6 3 2 2 2 4 3 2 6 7 3 4 2 1 2 3 5 14 3 17 11 7 5 3 2 5 3 6 5 10 19 24 35 38 43
25 22 16 13 11 10 8 5 3 3 1 2 2 1 3 3 3 4 3 6 4 3 6 2 3 4 13 7 5 14 9 4 4 2 3 5 5 2 6 8 10 18 31 36 40
24 19 15 15 11 11 10 1 3 1 2 1 2 2 1 4 2 2 2 3 7 4 1 3 2 6 9 4 5 7 7 4 3 4 5 6 2 4 10 16 20 22 28 34 41
26 18 13 13 13 13 4 2 4 2 4 5 2 2 3 2 0 2 4 3 4 4 3 3 2 3 4 4 5 7 5 4 3 5 3 2 5 2 17 16 24 28 32 36 39
25 14 10 13 13 13 2 4 3 3 3 2 4 2 4 5 3 2 0 1 3 3 1 2 1 1 1 5 6 6 3 2 2 5 5 6 4 4 16 17 18 23 30 35 38
23 9 8 12 11 5 3 4 3 2 3 2 3 2 1 4 4 3 4 3 2 1 3 2 2 2 1 5 5 4 4 3 2 1 1 4 2 3 3 5 12 20 25 34 35
18 3 12 16 4 1 2 4 4 4 3 3 2 1 3 4 3 3 4 4 5 4 2 2 2 1 3 3 2 3 3 3 3 5 3 3 4 3 3 12 19 21 25 32 34
16 7 15 19 3 3 2 2 2 3 3 4 4 1 2 3 3 4 5 4 5 1 1 2 0 1 5 4 3 2 3 3 3 1 4 2 4 4 17 17 22 23 28 31 34
12 4 4 9 3 5 5 3 4 3 2 2 2 3 2 2 2 4 4 3 4 4 4 1 1 4 4 5 2 1 1 3 2 0 2 5 9 12 11 11 19 25 31 30 28
8 4 8 5 5 4 4 7 5 6 5 3 2 7 4 3 2 4 4 4 4 5 2 2 2 2 4 4 2 4 4 5 4 6 4 5 8 9 3 6 19 23 28 31 31
12 8 7 6 11 10 9 8 11 6 9 5 5 8 5 2 1 7 6 5 4 4 2 1 2 1 3 3 2 5 7 5 5 7 10 9 12 5 12 17 20 22 26 31 31
10 14 10 9 5 5 5 7 11 13 8 1 11 5 5 5 15 16 13 12 7 6 3 2 3 1 3 2 4 4 6 8 3 4 3 4 5 9 8 14 17 18 23 28 31
Wind_Direction
353 357 360 2 4 4 3 1 354 348 349 346 325 338 347 58 50 12 15 7 11 33 27 26 355 347 35 30 26 329 276 36 6 327 323 340 329 340 335 312 318 329 325 316 306
342 348 353 355 358 360 357 353 349 339 339 344 333 345 350 4 51 349 356 3 15 25 18 10 360 1 44 14 35 30 304 11 337 328 330 329 326 354 334 319 336 324 320 316 316
333 340 345 348 352 354 353 346 338 334 331 347 2 9 29 83 16 352 342 4 20 41 356 351 345 344 338 14 34 355 304 332 323 333 333 336 1 333 357 337 339 326 327 328 324
326 333 339 344 347 347 347 342 335 327 312 344 348 1 54 34 7 322 347 11 25 32 9 358 13 2 351 3 13 303 324 342 318 336 312 343 335 353 25 344 334 327 326 323 324
325 329 335 339 341 342 341 337 330 327 300 329 318 348 98 95 357 335 352 10 23 21 7 8 19 350 2 344 340 223 340 318 295 302 324 303 324 339 5 348 342 335 331 330 329
323 325 330 334 335 337 335 332 317 325 314 324 301 41 18 255 342 346 3 9 47 36 6 20 360 338 313 295 269 344 301 286 271 332 55 336 37 17 351 349 347 343 340 337 334
319 322 322 325 329 332 331 330 320 315 310 319 299 145 350 166 358 354 7 23 45 59 3 5 2 4 326 322 272 285 280 280 202 41 57 344 61 23 4 344 344 349 345 342 339
313 319 319 319 327 330 332 332 330 316 274 326 323 141 312 330 2 353 16 15 345 333 334 1 24 316 318 299 248 239 183 327 42 71 69 355 356 21 3 2 347 346 347 342 342
314 317 316 318 323 329 330 335 339 338 238 359 77 21 127 331 358 9 357 330 348 304 321 306 300 356 5 339 4 163 331 322 326 125 151 110 330 12 12 2 350 347 346 345 347
316 315 315 318 323 326 325 329 326 344 344 265 58 273 293 298 345 357 349 13 351 280 278 328 47 33 10 24 10 309 308 304 291 57 8 327 320 10 19 11 352 348 347 348 351
300 314 316 318 323 330 325 336 351 336 49 70 37 290 340 326 344 346 7 2 277 271 326 83 49 13 340 1 301 307 301 292 345 45 331 305 32 24 24 8 2 354 351 350 351
280 285 311 319 322 321 328 346 300 271 268 296 342 16 358 34 6 338 11 32 329 22 356 159 37 355 311 342 359 327 322 358 311 341 312 270 95 44 36 8 10 359 353 350 352
273 277 294 308 315 322 350 5 49 43 292 119 216 335 351 69 48 356 17 10 0 34 360 72 356 332 334 32 352 332 34 337 307 313 279 319 99 14 32 13 3 3 359 358 358
273 269 252 277 298 313 24 72 80 29 53 152 154 343 350 87 55 9 13 31 70 25 340 76 15 1 342 9 348 321 7 322 311 315 315 54 287 32 3 4 4 360 358 355 354
266 265 243 222 212 232 196 185 109 77 322 51 75 27 44 61 166 14 15 49 46 345 279 81 3 354 356 338 318 284 310 295 286 282 329 343 81 340 9 355 358 356 353 353 355
265 253 248 229 218 230 213 169 107 62 241 114 86 57 214 41 41 9 25 40 29 303 8 71 121 47 332 308 87 329 309 280 232 238 236 241 141 40 11 356 347 352 351 352 354
260 263 249 229 222 223 207 148 35 205 104 119 74 95 43 18 61 34 63 29 31 22 25 191 66 96 8 339 353 352 353 356 354 359 222 252 49 264 33 18 345 355 348 352 354
255 246 245 236 228 230 181 256 177 125 50 270 114 149 359 360 54 356 213 95 60 2 3 348 338 12 356 28 297 339 32 97 271 342 303 260 86 187 57 15 3 2 357 356 357
241 232 230 219 222 212 153 191 230 155 140 161 143 189 145 130 267 293 46 73 49 25 75 19 117 140 64 336 5 327 41 165 269 218 276 250 84 226 6 3 3 5 360 358 356
237 207 209 214 213 178 128 253 160 58 108 262 187 222 190 146 176 197 156 54 119 49 290 111 297 104 2 215 49 101 325 39 325 6 320 328 62 357 344 351 356 360 356 355 356
217 162 181 190 178 171 201 165 134 112 86 141 244 159 42 146 171 143 114 150 130 128 83 159 124 277 136 22 11 355 14 349 162 15 199 325 31 221 297 325 354 351 358 352 354
191 127 166 163 131 218 178 150 135 125 202 252 283 302 182 149 132 151 135 67 146 135 155 88 89 316 76 29 0 326 52 38 100 307 284 185 291 170 182 29 3 351 357 356 357
157 120 163 169 175 177 123 100 121 130 178 217 192 288 303 151 108 128 99 113 144 162 125 137 38 1 330 340 221 327 99 128 146 144 252 98 262 130 27 12 2 356 356 359 357
158 122 136 195 215 138 158 172 153 210 183 220 121 106 155 137 319 138 113 165 142 96 107 126 119 160 174 211 137 321 47 69 77 177 279 238 307 343 2 351 353 359 353 359 360
163 156 168 173 220 175 166 139 137 169 214 261 261 233 174 133 76 147 118 128 165 150 88 97 166 121 287 296 195 214 189 184 163 236 172 276 305 318 337 335 355 350 351 356 0
161 143 148 144 141 151 174 200 169 151 159 201 239 185 182 142 244 181 136 175 174 137 91 329 135 105 290 155 292 271 253 245 199 233 262 262 284 65 14 355 352 351 353 352 358
181 162 158 149 146 144 199 174 182 129 204 273 197 122 151 87 81 93 84 91 114 136 144 151 123 131 259 33 347 316 229 189 199 196 190 235 239 351 356 349 355 352 353 352 354
Height
1531 1529 1527 1524 1522 1520 1518 1517 1515 1514 1512 1511 1509 1508 1507 1506 1505 1504 1501 1502 1498 1495 1493 1493 1493 1489 1488 1488 1488 1489 1488 1489 1488 1486 1484 1482 1482 1481 1482 1481 1477 1475 1473 1468 1457
1531 1530 1528 1525 1523 1520 1518 1517 1515 1514 1512 1511 1509 1508 1506 1505 1506 1505 1504 1502 1499 1496 1495 1494 1492 1489 1488 1488 1488 1489 1488 1487 1487 1485 1486 1485 1483 1481 1480 1478 1476 1472 1469 1463 1455
1531 1530 1528 1525 1523 1520 1518 1517 1515 1513 1512 1511 1509 1508 1507 1506 1507 1508 1504 1502 1500 1496 1495 1495 1492 1489 1486 1487 1489 1489 1489 1487 1486 1487 1485 1483 1484 1484 1481 1481 1479 1469 1458 1456 1452
1530 1529 1528 1526 1523 1520 1517 1516 1514 1513 1512 1510 1509 1509 1508 1507 1509 1506 1503 1501 1499 1496 1497 1496 1492 1489 1486 1488 1488 1490 1486 1486 1487 1485 1483 1483 1484 1484 1483 1484 1478 1469 1462 1454 1449
1530 1529 1527 1525 1523 1520 1517 1514 1513 1512 1511 1510 1508 1508 1508 1508 1509 1505 1502 1500 1498 1498 1498 1495 1493 1491 1489 1489 1488 1487 1488 1487 1484 1484 1481 1482 1482 1485 1485 1481 1475 1468 1461 1454 1448
1528 1528 1526 1524 1522 1519 1516 1514 1512 1511 1510 1510 1508 1508 1507 1508 1507 1503 1502 1500 1499 1499 1498 1496 1495 1493 1491 1490 1489 1487 1487 1483 1481 1481 1481 1482 1484 1485 1486 1479 1474 1468 1460 1453 1446
1528 1525 1525 1522 1520 1518 1515 1512 1511 1510 1509 1509 1508 1508 1508 1508 1505 1502 1501 1501 1501 1499 1499 1496 1494 1493 1491 1488 1486 1485 1486 1477 1477 1479 1480 1481 1488 1487 1485 1481 1474 1467 1459 1451 1443
1526 1524 1524 1523 1519 1517 1514 1512 1510 1509 1508 1508 1508 1509 1508 1506 1505 1503 1501 1502 1501 1500 1499 1496 1494 1493 1490 1485 1481 1481 1478 1484 1472 1476 1481 1482 1482 1485 1485 1479 1473 1467 1458 1450 1442
1522 1524 1524 1522 1519 1516 1513 1511 1511 1509 1508 1507 1509 1509 1509 1507 1505 1503 1501 1500 1500 1500 1498 1496 1495 1494 1491 1485 1479 1478 1493 1486 1478 1477 1479 1482 1486 1486 1485 1479 1473 1466 1457 1447 1437
1519 1523 1523 1522 1519 1515 1512 1510 1511 1510 1508 1508 1509 1511 1509 1509 1505 1503 1501 1500 1500 1500 1499 1496 1495 1496 1497 1497 1511 1502 1494 1485 1481 1477 1477 1479 1479 1486 1485 1479 1475 1468 1457 1448 1439
1519 1522 1523 1521 1519 1515 1514 1510 1513 1512 1508 1509 1509 1509 1508 1506 1505 1504 1500 1499 1499 1499 1495 1496 1502 1508 1500 1494 1496 1492 1485 1481 1477 1475 1480 1479 1485 1488 1485 1481 1476 1468 1458 1449 1440
1518 1518 1520 1520 1518 1516 1514 1511 1512 1513 1510 1507 1508 1508 1507 1506 1505 1504 1502 1501 1498 1499 1494 1498 1504 1502 1496 1490 1493 1489 1483 1488 1481 1475 1476 1472 1487 1487 1486 1484 1479 1473 1462 1451 1440
1515 1514 1517 1518 1517 1517 1514 1513 1511 1511 1509 1509 1509 1510 1509 1508 1508 1507 1504 1503 1503 1500 1500 1504 1505 1501 1496 1494 1497 1492 1491 1493 1490 1477 1470 1472 1487 1488 1485 1483 1477 1472 1467 1456 1446
1512 1512 1512 1515 1519 1517 1515 1512 1511 1510 1513 1509 1510 1510 1510 1508 1510 1509 1506 1506 1504 1505 1505 1502 1504 1502 1498 1498 1499 1497 1485 1488 1481 1475 1488 1473 1503 1486 1485 1482 1478 1470 1464 1457 1448
1509 1508 1508 1510 1513 1515 1514 1511 1509 1509 1508 1509 1509 1510 1510 1511 1512 1511 1510 1507 1509 1508 1508 1508 1506 1506 1504 1503 1497 1495 1487 1482 1478 1478 1477 1477 1497 1501 1484 1484 1481 1474 1469 1464 1455
1505 1505 1506 1506 1508 1510 1509 1509 1510 1514 1503 1507 1509 1510 1511 1512 1512 1511 1511 1510 1511 1510 1506 1507 1505 1506 1508 1500 1496 1492 1483 1474 1475 1478 1485 1492 1489 1504 1507 1504 1490 1485 1475 1468 1458
1501 1501 1502 1503 1506 1507 1508 1509 1512 1507 1504 1508 1508 1509 1511 1514 1512 1514 1517 1519 1523 1516 1519 1507 1507 1506 1507 1504 1499 1495 1493 1507 1503 1500 1498 1480 1481 1514 1506 1503 1498 1491 1481 1473 1464
1496 1497 1499 1501 1503 1506 1508 1511 1506 1502 1503 1510 1510 1510 1508 1516 1517 1513 1512 1517 1524 1526 1521 1524 1516 1514 1513 1515 1515 1506 1508 1540 1540 1522 1498 1467 1502 1511 1503 1504 1500 1495 1487 1477 1466
1490 1493 1496 1499 1502 1504 1508 1499 1498 1498 1506 1508 1511 1509 1512 1515 1517 1514 1517 1522 1528 1530 1530 1532 1513 1514 1515 1516 1512 1514 1530 1522 1523 1518 1509 1477 1493 1495 1499 1500 1496 1493 1488 1479 1472
1486 1489 1492 1497 1500 1502 1506 1498 1505 1506 1507 1508 1502 1506 1500 1510 1515 1514 1515 1527 1528 1531 1531 1534 1528 1514 1514 1516 1515 1517 1519 1534 1532 1541 1537 1490 1496 1515 1509 1504 1499 1493 1489 1484 1476
1482 1486 1491 1494 1499 1502 1500 1500 1507 1509 1507 1512 1506 1505 1505 1507 1509 1514 1517 1527 1525 1530 1531 1533 1537 1521 1515 1527 1528 1526 1536 1526 1527 1529 1544 1522 1514 1517 1520 1514 1507 1502 1498 1488 1481
1477 1485 1489 1492 1499 1499 1499 1502 1506 1507 1509 1510 1510 1507 1506 1509 1511 1514 1515 1520 1525 1527 1531 1532 1537 1536 1529 1528 1527 1525 1529 1533 1544 1546 1535 1533 1521 1514 1513 1510 1508 1504 1501 1495 1486
1472 1481 1487 1490 1492 1497 1503 1504 1504 1508 1509 1510 1508 1508 1509 1508 1516 1512 1517 1524 1525 1526 1530 1530 1540 1540 1542 1538 1527 1525 1527 1531 1536 1542 1544 1547 1522 1507 1508 1509 1508 1505 1502 1498 1490
1467 1479 1487 1489 1488 1489 1496 1499 1503 1507 1507 1507 1508 1509 1510 1510 1512 1515 1520 1525 1526 1527 1528 1530 1536 1542 1542 1536 1537 1543 1536 1533 1537 1549 1552 1536 1524 1511 1514 1512 1508 1506 1503 1501 1497
1459 1465 1468 1483 1484 1485 1488 1492 1500 1504 1508 1508 1509 1507 1506 1514 1515 1514 1518 1526 1526 1528 1529 1531 1537 1539 1529 1524 1526 1530 1540 1540 1547 1538 1547 1529 1526 1519 1518 1515 1511 1508 1505 1502 1497
1453 1459 1467 1472 1474 1481 1484 1489 1491 1497 1501 1506 1506 1501 1504 1507 1506 1512 1515 1519 1520 1527 1531 1532 1532 1530 1538 1526 1526 1527 1525 1526 1529 1528 1526 1524 1517 1516 1515 1513 1511 1508 1505 1501 1499
1448 1451 1455 1470 1475 1477 1477 1478 1483 1488 1498 1497 1500 1501 1504 1509 1508 1510 1513 1514 1517 1524 1531 1534 1535 1537 1531 1526 1543 1534 1533 1525 1522 1524 1523 1525 1514 1511 1514 1513 1512 1509 1507 1503 1500